Location: Ao Por, Phuket, Thailand
(8.0591°N, 98.4362°E)
Time: 17:04:22
(UTC+07:00)

N. Korean satellite - Pass Details

Date: 03 October 2021
Orbit: 450 x 495 km, 97.3° (Epoch: 15 October)

Event Time Altitude Azimuth Distance (km) Brightness Sun altitude
Rises 05:20:51 0° 11° (NNE) 2,558 10.4 -14.0°
Reaches altitude 10° 05:22:55 10° 12° (NNE) 1,681 9.4 -13.5°
Maximum altitude 05:26:32 85° 98° (E) 500 6.6 -12.6°
Drops below altitude 10° 05:30:11 10° 190° (S) 1,690 9.2 -11.7°
Sets 05:32:15 0° 190° (S) 2,572 10.2 -11.2°
